SBPSSBIL

Guest
Details From SBPS - Porto Seguro
To SBIL - Ilheus
Flight Number -
Tags generated
Created
Modified
Stats Distance 98 nm / 181 km
Max Altitude 10,500 ft / 3,200 m
Waypoints 3
Social Downloads 0
Likes 0
Share VATSIM

Download

Looking for another format? Having issues loading an existing format? Contact us
Advertisement - Login to hide

Notes

Basic altitude profile: - Ascent Rate: 2500ft/min - Ascent Speed: 250kts - Cruise Altitude: 35000ft - Cruise Speed: 420kts - Descent Rate: 1500ft/min - Descent Speed: 250kts Options: - Use NATs: yes - Use PACOTS: yes - Use low airways: yes - Use high airways: no

Route

SBPS RAIRA SBIL

ID Type Via Altitude Latitude Longitude Leg Dist Tot Dist Heading (true) Name
O SBPS APT - 0 ft / 0 m -16.43863˚ -39.08092˚ - 0 nm - Porto Seguro
RAIRA FIX - 10,500 ft / 3,200 m -15.63000˚ -39.09917˚ 48 nm 48 nm 359° / 359° -
O SBIL APT - 0 ft / 0 m -14.81596˚ -39.03320˚ 49 nm 97 nm 4° / 4° Ilheus

Altitude Profile

Advertisement - Login to hide

SBPS

Details ICAO SBPS (BPS)
Name Porto Seguro
Region Brazil
Timezone America/Bahia (UTC-3.0)
Stats Elevation 168 ft / 51 m (AMSL)
Location -16.438625° -39.080917°
Runways 1
Magnetic Variation 23.888° W

METAR

SBPS 220200Z 25004KT 9999 SCT013 SCT023 BKN030 23/22 Q1017

Decode

TAF

TAF SBPS 212200Z 2200/2224 32005KT 9000 SCT015 SCT020 TN23/2207Z TX29/2216Z PROB40 TEMPO 2202/2208 6000 SHRA SCT012 SCT020 BECMG 2211/2212 16008KT RMK PCN

Decode

Departure Runways

ID Width Length Bearing (true) Bearing (mag) Surface Threshold Offset Overrun Length
10 148 ft / 45 m 6,532 ft / 1,991 m 74.06° 97.95° Asphalt 0 ft / 0 m 195 ft / 59 m
28 148 ft / 45 m 6,532 ft / 1,991 m 254.06° 277.95° Asphalt 0 ft / 0 m 0 ft / 0 m

SBIL

Details ICAO SBIL (IOS)
Name Ilheus
Region Brazil
Timezone America/Bahia (UTC-3.0)
Stats Elevation 15 ft / 5 m (AMSL)
Location -14.815964° -39.033197°
Runways 1
Magnetic Variation 23.700° W

METAR

Not found

TAF

TAF SBIL 212200Z 2200/2212 26005KT 9000 SCT020 TX27/2200Z TN23/2207Z PROB30 TEMPO 2207/2210 7000 SHRA SCT015 SCT020 RMK PCN

Decode

Destination Runways

ID Width Length Bearing (true) Bearing (mag) Surface Threshold Offset Overrun Length
11 148 ft / 45 m 5,127 ft / 1,563 m 88.35° 112.05° Asphalt 0 ft / 0 m 190 ft / 58 m
29 148 ft / 45 m 5,127 ft / 1,563 m 268.34° 292.04° Asphalt 0 ft / 0 m 160 ft / 49 m

Popular Alternatives